Location: Proctor
(47.8934°N, 114.3048°W)
Time: 11:57:24
(UTC+00:00)

X-37B - Visible Passes

Search period start: 22 January 2022 00:00
Search period end: 01 February 2022 00:00
Orbit: 334 x 337 km, 45.0° (Epoch: 11 January)

Date Brightness Start Highest point End Pass type
(mag) Time Alt. Az. Time Alt. Az. Time Alt. Az.
27 Jan 3.1 02:26:57 10° SSW 02:27:26 12° S 02:27:26 12° S visible
28 Jan 3.1 02:46:26 10° SW 02:47:10 15° SSW 02:47:10 15° SSW visible
29 Jan 2.6 01:32:24 10° S 01:34:09 15° SSE 01:35:37 11° ESE visible
29 Jan 3.6 03:06:29 10° WSW 03:06:51 13° WSW 03:06:51 13° WSW visible
30 Jan 1.8 01:51:53 10° SW 01:54:19 26° SSE 01:55:16 21° SE visible
31 Jan 1.1 02:11:55 10° WSW 02:14:36 39° S 02:14:53 37° SSE visible
